AirNav   Air Wisconsin Up To $57,000 Bonus
 
 1113 users online  

S68 Orofino Municipal Airport
Orofino, Idaho, USA

GOING TO OROFINO?


FAA INFORMATION EFFECTIVE 25 MARCH 2021

Location

FAA Identifier: S68
Lat/Long: 46-29-31.2760N 116-16-31.4380W
46-29.521267N 116-16.523967W
46.4920211,-116.2753994
(estimated)
Elevation: 1004.7 ft. / 306.2 m (surveyed)
Variation: 18E (1985)
From city: 1 mile NW of OROFINO, ID
Time zone: UTC -7 (UTC -8 during Standard Time)
Zip code: 83544

Airport Operations

Airport use: Open to the public
Activation date: 04/1940
Control tower: no
ARTCC: SEATTLE CENTER
FSS: BOISE FLIGHT SERVICE STATION
NOTAMs facility: BOI (NOTAM-D service available)
Attendance: UNATNDD
Wind indicator: lighted
Segmented circle: no
Lights: ACTVT RY 09/27 MIRL - CTAF.

Airport Communications

CTAF/UNICOM: 122.8

Nearby radio navigation aids

VOR radial/distance  VOR name  Freq  Var
MQGr055/25.4NEZ PERCE VOR/DME108.2020E

Airport Services

Fuel available: 100LL
Parking: tiedowns
Airframe service: NONE
Powerplant service: NONE
Bottled oxygen: NONE
Bulk oxygen: NONE

Runway Information

Runway 9/27

Dimensions: 2520 x 60 ft. / 768 x 18 m
Surface: asphalt, in good condition
Weight bearing capacity: 
Single wheel: 17.0
Runway edge lights: medium intensity
RUNWAY 9  RUNWAY 27
Latitude: 46-29.604263N46-29.438260N
Longitude: 116-16.798980W116-16.248955W
Elevation: 1000.0 ft.1004.7 ft.
Traffic pattern: rightleft
Displaced threshold: 100 ft.no
Markings: basic, in good conditionbasic, in good condition
Touchdown point: yes, no lightsyes, no lights
Obstructions: 60 ft. tree, 240 ft. from runway, 100 ft. right of centerline
RWY 09 +50' TREE AT 30', 80' LEFT OF CENTERLINE
50 ft. tree, 200 ft. from runway, 100 ft. right of centerline
+13 FT ROAD AT 0 FT 110 FT R OF CNTRLN.

Airport Ownership and Management from official FAA records

Ownership: Publicly-owned
Owner: CITY OF OROFINO
PO BOX 312
OROFINO, ID 83544
Phone 208-476-4725
Manager: RICK LAAM
AIRPORT RD. NO 1
OROFINO, ID 83544
Phone 208-476-4725

Airport Operational Statistics

Aircraft based on the field: 9
Single engine airplanes: 9
    
Aircraft operations: avg 79/week *
73% transient general aviation
27% local general aviation
* for 12-month period ending 30 September 2018

Additional Remarks

HIGH TERRAIN IN ALL QUADS AROUND ARPT.
TWO 1968 FT MSL (250 FT AGL) RADIO TWRS LOCATED APPROXIMATELY 1 MILE E OF RY 27 300 FT LEFT.
BE ALERT DURING NIGHT OPS DUE TO TERRAIN.
FOR CD CTC SEATTLE ARTCC AT 253-351-3694.
FUEL AVBL 24/7 WITH CREDIT CARD.

Instrument Procedures

There are no published instrument procedures at S68.

Some nearby airports with instrument procedures:

KLWS - Lewiston-Nez Perce County Airport (31 nm W)
KGIC - Idaho County Airport (34 nm S)
KPUW - Pullman/Moscow Regional Airport (38 nm NW)
KCOE - Coeur d'Alene Airport - Pappy Boyington Field (80 nm N)
KSFF - Felts Field Airport (83 nm NW)
 
Loc | Ops | Rwys | IFR | FBO | Links
Com | Nav | Svcs | Stats | Notes
Area around S68 (Orofino Municipal Airport)
 
Road maps at: MapQuest Bing Google
 
Aerial photo
WARNING: Photo may not be current or correct
Aerial photo of S68 (Orofino Municipal Airport)
Photo by Lyle Hendricks
Photo taken 09-May-2010
looking northeast.

Do you have a better or more recent aerial photo of Orofino Municipal Airport that you would like to share? If so, please send us your photo.

 
Sectional chart

 
Airport distance calculator
Flying to Orofino Municipal Airport? Find the distance to fly.

From to S68

Sunrise and sunset
Times for 11-Apr-2021
 Local
(UTC-7)
 Zulu
(UTC)
Morning civil twilight05:3512:35
Sunrise06:0613:06
Sunset19:2602:26
Evening civil twilight19:5702:57

Current date and time
Zulu (UTC)  11-Apr-2021 22:11:01
Local (UTC-7)  11-Apr-2021 15:11:01
 
METAR
KLWS 
32nm W 
112156Z 26007KT 10SM CLR 11/M11 A3023 RMK AO2 SLP244 T01111106
KGIC 
34nm S 
112155Z AUTO 09003KT 10SM SCT060 BKN080 03/M10 A3017 RMK AO1
KP69 
35nm SE 
112152Z AUTO VRB03KT 10/M05 A3021 RMK AO1 SLP242 T01001050 $
KPUW 
38nm NW 
112153Z AUTO VRB05KT 10SM CLR 07/M11 A3022 RMK AO2 SLP256 T00671106
TAF
KLWS 
32nm W 
111733Z 1118/1218 30008KT P6SM SKC FM120200 VRB03KT P6SM SKC FM121100 12006KT P6SM SKC
KPUW 
38nm NW 
111733Z 1118/1218 29008KT P6SM FEW080 FM120300 VRB02KT P6SM SKC FM121200 08007KT P6SM SKC
NOTAMs
Click for the latest NOTAMs
NOTAMs are issued by the DoD/FAA and will open in a separate window not controlled by AirNav.

 

 
 

FBO, Fuel Providers, and Aircraft Ground Support

  
 Business Name 
 
 Contact 
 
 Services / Description 
 
Fuel Prices
 
Comments
  
City of Orofino 208-476-4725
no information available

If you are affiliated with City of Orofino and would like to show here your services, contact info, web link, logo, and more, click here
100LL
FS $4.75 
 Updated 02-Apr-2021
 
   1 read write
FS=Full service
Update Fuel Prices
 

Would you like to see your business listed on this page?

 If your business provides an interesting product or service to pilots, flight crews, aircraft, or users of the Orofino Municipal Airport, you should consider listing it here.  To start the listing process, click on the button below
 
Add a business
 

Other Pages about Orofino Municipal Airport

Update a link
 
Copyright © AirNav, LLC. All rights reserved. Privacy Policy  Contact